Location: La Garde-Adh�mar
(44.3955°N, 4.7578°E)
Time: 05:42:51
(UTC+00:00)

Daily predictions for brighter satellites

Satellite Brightness Start Highest point End
(mag) Time Altitude Azimuth Time Altitude Azimuth Time Altitude Azimuth
Cosmos 2333 Rocket 3.9 00:03:30 10° N 00:07:04 28° NNE 00:07:04 28° NNE
SL-16 R/B 3.6 00:31:32 39° NE 00:31:32 39° NE 00:36:46 10° N
Cosmos 2219 Rocket 3.7 00:46:02 10° NNW 00:49:01 31° N 00:49:01 31° N
Cosmos 2227 Rocket 4.3 01:02:32 17° E 01:02:32 17° E 01:05:24 10° ENE
ADEOS II 4.1 01:04:46 10° NE 01:08:11 21° E 01:08:11 21° E
SJ 16-02 3.7 01:14:58 21° NNE 01:14:58 21° NNE 01:16:30 10° NNE
COSMOS 2428 4.1 01:07:08 10° NNW 01:10:03 32° NNW 01:10:03 32° NNW
Resurs 1-4 Rocket 3.2 01:15:28 10° NNE 01:18:58 42° NNE 01:18:58 42° NNE
NOSS 0 Rocket 4.3 01:19:33 10° NNW 01:24:55 59° NNE 01:24:55 59° NNE
ARIANE 5 R/B 4.4 01:26:39 10° NE 01:30:46 23° E 01:31:01 23° E
H-2A R/B 4.3 01:34:44 20° ENE 01:35:03 20° ENE 01:38:04 10° NNE
SL-16 R/B 4.4 01:30:58 10° N 01:35:24 23° NE 01:39:48 10° E
Timation 2 Rocket 4.1 01:39:47 81° N 01:39:47 81° N 01:46:23 10° NNE
Lacrosse 5 rocket 3.9 01:41:23 17° NNE 01:41:23 17° NNE 01:42:43 10° NNE
NPP 4.2 01:39:54 10° NNE 01:44:03 54° N 01:44:03 54° N
CZ-2D R/B 2.7 01:41:33 10° N 01:45:47 53° N 01:45:47 53° N
Cosmos 2333 Rocket 4.2 01:47:38 10° NW 01:49:02 17° NW 01:49:02 17° NW
Cosmos 1937 Rocket 4.2 01:56:46 48° N 01:56:46 48° N 02:00:41 10° NNE
SL-08 R/B 4.0 01:58:01 54° ENE 01:58:01 54° ENE 02:02:45 10° N
USA 267 3.9 01:52:15 10° ENE 01:58:22 41° SE 01:58:52 41° SE
Cosmos 2237 Rocket 2.3 01:53:34 10° NNW 01:58:50 72° NNE 01:58:50 72° NNE
Tsikada Rocket 3.9 02:00:24 87° SSW 02:00:31 89° W 02:06:59 10° N
CBERS-1 4.3 01:58:27 10° NNE 02:02:45 64° NNE 02:02:45 64° NNE
Cosmos 2034 Rocket 4.3 01:58:34 10° NNW 02:03:50 52° WNW 02:03:50 52° WNW
Meteor 1-27 Rocket 4.1 02:07:18 53° NW 02:07:18 53° NW 02:12:11 10° N
IRS-P3 4.1 02:09:02 10° NNE 02:14:22 82° E 02:14:22 82° E
SL-16 R/B 3.6 02:16:37 31° WNW 02:16:37 31° WNW 02:20:24 10° NNW
Cosmos 2297 Rocket 2.1 02:18:26 79° SE 02:18:39 80° ESE 02:24:20 10° NNE
Cosmos 1743 4.3 02:15:59 10° N 02:18:11 32° N 02:18:11 32° N
USA 238 DEB 3.5 02:18:58 64° S 02:20:01 79° SE 02:26:55 10° NE
USA 238 3.6 02:19:03 63° S 02:20:08 78° SE 02:27:03 10° NE
Cosmos 1975 4.1 02:16:34 10° N 02:20:20 37° ENE 02:20:39 36° E
BREEZE-M DEB (TANK) 3.7 02:22:14 52° N 02:22:14 52° N 02:27:16 10° ENE
Cosmos 2219 3.2 02:27:51 67° W 02:28:06 68° WNW 02:33:52 10° NNE
Cosmos 1048 Rocket 4.2 02:24:04 10° NNW 02:29:25 70° ENE 02:32:52 22° SSE
STARLINK-1060 4.2 02:32:12 56° NE 02:32:12 56° NE 02:35:33 10° NE
CZ-2C R/B 4.3 02:28:03 10° NNE 02:31:42 32° E 02:32:22 30° ESE
USA 234 4.2 02:27:00 10° E 02:33:09 46° NNE 02:39:19 10° NW
Meteor 1-28 Rocket 4.0 02:36:21 50° NNE 02:36:21 50° NNE 02:39:19 10° N
Cosmos 2279 Rocket 4.2 02:29:49 10° N 02:36:04 70° E 02:40:52 18° SSE
Meteor 1-18 Rocket 4.3 02:34:45 49° S 02:36:22 76° E 02:42:04 10° NNE
STARLINK-1030 4.0 02:37:00 61° NNE 02:37:00 61° NNE 02:40:33 10° NE
Cosmos 1125 Rocket 3.8 02:37:45 50° SSE 02:38:55 65° ESE 02:44:12 10° NNE
STARLINK-1020 3.9 02:41:48 64° N 02:41:48 64° N 02:45:32 10° NE
IRS-1D 4.1 02:38:46 10° N 02:43:17 41° WNW 02:43:17 41° WNW
NOSS 3-2 (A) 3.3 02:42:50 58° WSW 02:44:03 79° NW 02:50:36 10° NE
Cosmos 2227 Rocket 2.1 02:44:21 61° WSW 02:45:15 73° WNW 02:50:56 10° NNE
STARLINK-1052 3.8 02:46:34 64° N 02:46:34 64° N 02:50:30 10° NE
CENTAUR R/B 2.7 02:46:11 40° S 02:48:17 63° ESE 02:55:02 10° NE
ADEOS II 2.2 02:43:38 10° N 02:48:45 53° WNW 02:49:08 51° W
Cosmos 2150 Rocket 4.1 02:50:34 55° WSW 02:51:19 61° WNW 02:56:45 10° NNE
SJ 16-02 3.8 02:51:57 11° NW 02:51:57 11° NW 02:52:39 10° NW
CZ-2D R/B 3.3 02:47:12 10° NNE 02:51:27 84° ESE 02:51:41 78° SSE
Cosmos 2298 Rocket 4.2 02:51:31 52° W 02:52:07 55° WNW 02:57:22 10° NNE
Cosmos 1782 Rocket 3.5 02:48:27 10° NNW 02:52:27 66° WNW 02:52:27 66° WNW
STARLINK-1064 4.5 02:52:56 38° SE 02:53:05 38° SE 02:56:57 10° ENE
NOSS 3-3 (A) 4.4 02:45:48 10° NW 02:53:24 82° SW 03:01:46 10° SSE
NOSS 3-3 (C) 4.4 02:45:54 10° NW 02:53:30 82° SW 03:01:53 10° SSE
Okean 1-7 3.2 02:55:06 55° WNW 02:55:06 55° WNW 02:59:12 10° N
STARLINK-1027 3.9 02:55:30 55° NW 02:55:49 57° NNW 03:00:01 10° NE
STARLINK-1033 3.8 02:56:08 56° NW 02:56:20 57° NNW 03:00:27 10° NE
SAR-Lupe-4 3.8 02:57:23 53° SE 02:58:00 66° ENE 03:01:34 10° N
STARLINK-1041 4.3 02:57:42 41° SSE 02:58:01 42° SE 03:01:57 10° ENE
Cosmos 1703 Rocket 4.1 03:00:17 43° WNW 03:00:17 43° WNW 03:04:17 10° N
Resurs 1-4 Rocket 3.8 02:56:35 10° NNW 03:00:00 18° WNW 03:00:03 18° WNW
IDEFIX/ARIANE 42P 2.8 02:57:17 10° NNE 03:02:28 65° ESE 03:05:38 24° S
STARLINK-1038 4.2 03:02:29 43° SSE 03:02:58 46° SE 03:06:57 10° ENE
STARLINK-1031 4.2 03:02:55 45° WNW 03:03:34 50° NNW 03:07:44 10° NE
BREEZE-M DEB (TANK) 2.3 03:05:30 56° SSE 03:05:32 56° SSE 03:07:54 10° ENE
STARLINK-1024 4.1 03:05:41 45° WNW 03:06:20 50° NNW 03:10:23 10° NE
STARLINK-1046 4.0 03:07:16 45° S 03:07:56 50° SE 03:11:57 10° ENE
Cosmos 2180 Rocket 4.4 03:02:42 10° N 03:08:57 84° W 03:15:15 10° S
CZ-4B R/B 2.7 03:05:50 10° SE 03:09:10 43° ENE 03:12:30 10° N
ARIANE 5 R/B 2.9 03:05:04 10° N 03:10:06 49° WNW 03:11:22 40° WSW
H-2A R/B 2.8 03:11:49 33° WNW 03:11:49 33° WNW 03:14:43 10° NNW
BREEZE-M DEB (TANK) 2.9 03:05:24 10° WNW 03:10:57 53° SW 03:14:45 10° SE
STARLINK-1035 4.2 03:10:27 40° WNW 03:11:18 47° NNW 03:15:20 10° NE
CZ-2C R/B 4.2 03:07:49 10° NE 03:11:40 26° E 03:15:30 10° SSE
Spot 4 Rocket 4.0 03:06:43 10° N 03:11:50 63° WNW 03:13:35 39° SW
STARLINK-1039 4.0 03:12:03 45° S 03:12:54 55° SE 03:16:58 10° ENE
SAR-Lupe-1 3.9 03:14:18 44° S 03:15:22 83° WSW 03:18:58 10° NNW
NOSS 3-2 (C) 3.4 03:13:21 37° SW 03:15:50 76° NW 03:22:25 10° NE
Cosmos 967 Rocket 4.5 03:09:26 10° NNW 03:15:58 88° ENE 03:22:22 10° SSE
STARLINK-43 4.0 03:13:52 21° NW 03:16:08 54° NNE 03:19:46 10° ESE
STARLINK-1032 4.3 03:15:15 36° WNW 03:16:19 45° NNW 03:20:19 10° NE
Meteor 1-4 Rocket 3.8 03:13:54 17° SSE 03:16:29 42° E 03:20:04 10° NNE
Cosmos 389 Rocket 2.3 03:17:04 65° SW 03:17:30 78° W 03:21:03 10° N
STARLINK-1045 3.8 03:16:51 44° SSW 03:17:53 60° SE 03:21:58 10° ENE
Lacrosse 5 rocket 3.8 03:17:53 10° NNW 03:19:51 13° N 03:21:51 10° NNE
SL-16 R/B 2.1 03:14:23 10° NNW 03:20:02 67° WSW 03:25:37 10° SSE
STARLINK-1011 4.4 03:20:02 32° WNW 03:21:20 42° NNW 03:25:18 10° NE
Cosmos 2082 3.8 03:20:11 33° SW 03:22:40 62° WNW 03:28:22 10° NNE
STARLINK-1050 3.7 03:21:38 42° SSW 03:22:51 66° SE 03:26:58 10° ENE
CZ-2D R/B 4.2 03:24:09 10° NNW 03:26:07 12° NW 03:27:06 11° WNW
deb Chang Zheng 4 3.5 03:22:00 10° NNE 03:26:20 88° WNW 03:28:51 25° SSW
STARLINK-1036 4.5 03:24:50 29° WNW 03:26:21 40° NNW 03:30:17 10° NE
STARLINK-1055 3.6 03:26:25 39° SW 03:27:49 72° SE 03:31:58 10° ENE
Okean 3 3.4 03:30:21 33° SSW 03:32:03 61° W 03:36:13 10° N
STARLINK-1022 3.6 03:31:13 36° SW 03:32:48 78° SE 03:36:58 10° ENE
Cosmos 1515 4.5 03:34:47 31° W 03:35:03 31° WNW 03:38:30 10° N
STARLINK-1042 3.6 03:35:59 33° SW 03:37:46 84° SE 03:41:56 10° ENE
Meteor 1-12 Rocket 4.2 03:32:26 10° NNW 03:38:24 76° W 03:44:14 10° S
Cosmos 1263 4.5 03:38:38 42° W 03:38:51 43° W 03:41:43 10° N
COSMOS 2441 4.3 03:35:56 10° NNE 03:40:45 87° ESE 03:45:33 10° SSW
Cosmos 1544 4.0 03:37:59 10° NNW 03:41:05 29° W 03:41:05 29° W
USA 267 3.4 03:35:07 10° NE 03:41:35 66° NNW 03:46:14 20° WSW
SeaSat 1 3.5 03:37:39 10° SE 03:42:22 48° NE 03:47:07 10° NNW
Cosmos 2237 Rocket 4.0 03:39:15 10° WNW 03:40:36 14° WNW 03:40:36 14° WNW
STARLINK-1056 3.5 03:40:46 30° SW 03:42:45 89° NW 03:46:55 10° NE
Cosmos 1603 4.4 03:37:23 10° NNW 03:42:55 56° ENE 03:48:26 10° SE
Cosmos 1300 Rocket 3.6 03:41:22 10° NNW 03:45:36 56° W 03:49:50 10° S
Cosmos 494 Rocket 4.3 03:40:53 10° NNW 03:45:52 44° WSW 03:50:50 10° S
ATLAS 3B R/B 2.6 03:40:36 17° SSW 03:45:55 85° ESE 03:52:36 10° NE
Cosmos 2221 Rocket 4.0 03:45:25 24° SW 03:47:37 42° WNW 03:51:50 10° N
STARLINK-1054 3.6 03:45:32 27° WSW 03:47:42 83° NNW 03:51:52 10° NE
ATLAS 5 CENTAUR R/B 2.5 03:42:20 10° NW 03:48:07 81° NE 03:54:50 10° SE
Cosmos 1818 3.5 03:43:36 10° NW 03:48:59 62° WSW 03:54:18 10° SSE
STARLINK-1062 3.6 03:50:19 25° WSW 03:52:41 78° NNW 03:56:51 10° NE
Cosmos 2263 Rocket 2.9 03:48:31 10° S 03:54:01 56° ESE 03:59:36 10° NNE
Cosmos 1689 Rocket 2.0 03:52:07 10° SSE 03:55:07 87° ENE 03:58:08 10° NNW
Okean 2 Rocket 3.7 03:51:27 10° NNW 03:55:35 37° W 03:59:44 10° SSW
Cosmos 1975 4.4 03:53:49 10° NW 03:56:22 17° W 03:56:22 17° W
Cosmos 2151 Rocket 3.7 03:52:52 10° NNW 03:57:08 51° W 04:01:23 10° S
STARLINK-1053 3.7 03:55:07 22° WSW 03:57:41 72° NNW 04:01:51 10° NE
PSLV R/B 3.6 03:53:46 10° N 03:58:07 65° WNW 04:02:26 10° SSW
Cosmos 1356 3.9 03:54:56 10° NNW 03:58:08 38° W 04:01:20 10° SSW
BREEZE-M DEB (TANK) 3.1 03:54:38 10° WNW 03:58:15 43° N 04:00:28 10° E
Cosmos 1437 Rocket 4.3 03:54:50 10° SSE 03:58:38 38° E 04:02:27 10° NNE
Cosmos 1867 3.7 03:57:06 11° SSW 04:02:23 79° ESE 04:07:52 10° NE
STARLINK-1061 3.7 03:59:52 20° WSW 04:02:38 67° NNW 04:06:47 10° NE
Cosmos 1378 Rocket 3.5 03:58:49 10° S 04:03:09 90° WNW 04:07:33 10° N
Cosmos 2297 Rocket 3.8 04:00:14 13° W 04:03:23 20° NW 04:07:27 10° N
CZ-2C R/B 4.3 04:02:49 10° NNW 04:05:56 22° WNW 04:07:46 16° WSW
Cosmos 1092 Rocket 4.0 04:00:43 10° SSW 04:07:03 78° W 04:13:24 10° N
Cosmos 1269 Rocket 4.4 04:02:16 10° NW 04:07:14 41° WSW 04:12:10 10° S
STARLINK-1067 3.8 04:04:40 18° WSW 04:07:40 63° NNW 04:11:47 10° NE
Aureole 3 Rocket 4.3 04:06:41 10° N 04:10:56 40° ENE 04:14:13 10° SE
ATLAS CENTAUR R/B 2.3 04:11:35 15° WNW 04:12:34 20° NNW 04:14:33 10° NNE
Meteor 2-4 Rocket 4.5 04:07:38 12° SW 04:12:37 36° WNW 04:18:01 10° N
STARLINK-1058 3.9 04:09:26 16° WSW 04:12:38 59° NNW 04:16:44 10° NE
Meteor 1-31 Rocket 3.6 04:09:32 10° NNE 04:13:24 54° E 04:17:13 10° S
USA 234 3.2 04:09:25 10° SE 04:15:57 72° SW 04:22:30 10° NW
STARLINK-1043 4.0 04:14:14 14° WSW 04:17:38 55° NNW 04:21:44 10° NE
Geosat 4.0 04:12:59 10° NNE 04:18:00 67° WNW 04:22:58 10° SW
Cosmos 2026 Rocket 3.9 04:11:56 10° S 04:18:02 86° W 04:24:08 10° N
STARLINK-1065 4.0 04:14:49 14° WSW 04:18:15 54° NNW 04:22:19 10° NE
Cosmos 2251 Rocket 3.8 04:15:44 10° NNW 04:21:07 77° ENE 04:26:25 10° SSE
Timation 1 Rocket 4.4 04:16:37 10° SSW 04:22:38 81° WNW 04:28:42 10° NNE
STARLINK-41 4.5 04:22:47 10° NW 04:25:45 35° NNE 04:28:42 10° E
STARLINK-1063 4.2 04:23:48 11° W 04:27:38 49° NNW 04:31:40 10° NE
Cosmos 1428 Rocket 4.5 04:21:45 10° S 04:27:53 81° W 04:34:07 10° N
ALOS 3.4 04:24:51 10° NNE 04:29:22 47° E 04:33:52 10° S
Cosmos 2227 Rocket 4.1 04:27:15 10° WNW 04:30:22 15° NW 04:33:30 10° N
Cosmos 2227 4.3 04:26:24 10° SW 04:31:57 63° WNW 04:37:33 10° NNE
H-2A R/B 3.0 04:28:02 10° NNE 04:32:03 60° E 04:35:55 10° S
STARLINK-42 4.1 04:29:08 10° NW 04:32:14 44° NNE 04:35:20 10° ESE
STARLINK-1064 4.2 04:28:38 10° W 04:32:38 46° NNW 04:36:39 10° NE
SL-24 R/B 4.4 04:29:17 10° SSE 04:34:31 83° WSW 04:39:04 10° NNW
STARLINK-80 3.4 04:31:27 10° NW 04:35:16 87° NE 04:39:05 10° SE
STARLINK-1041 4.3 04:33:39 10° W 04:37:37 43° NNW 04:41:36 10° NE
Cosmos 1943 3.2 04:32:56 10° NNW 04:38:38 70° WSW 04:44:16 10° SSE
CENTAUR R/B 3.6 04:33:49 10° W 04:39:26 34° NW 04:45:58 10° NNE
